ACA429 CYUL-CYYZ

Flight info

Callsign ACA429
Flight time 0h 57m
Altitude 36000
Route BOBKI DCT MELTI DCT TORNI RAGID6
Aircraft A321/M-SDE3FGHIRWY/LB1

Departure

Time 2026-05-06 02:08
Airport Montreal / Pierre Elliott Trudeau International Airport (CYUL)

Arrival

Time 2026-05-06 03:05
Airport Toronto Pearson International Airport (CYYZ)
Time Latitude Longitude Altitude Speed Heading
2026-05-06 01:28 45.45927 -73.75043 105 ft 0 kts 178°
2026-05-06 01:56 45.45941 -73.75044 104 ft 4 kts 178°
2026-05-06 01:56 45.45967 -73.75046 103 ft 3 kts 178°
2026-05-06 01:57 45.45990 -73.75050 104 ft 4 kts 150°
2026-05-06 01:57 45.46006 -73.75076 104 ft 4 kts 104°
2026-05-06 01:57 45.46009 -73.75113 104 ft 4 kts 86°
2026-05-06 01:57 45.46007 -73.75143 104 ft 0 kts 85°
2026-05-06 01:59 45.46007 -73.75142 104 ft 0 kts 85°
2026-05-06 02:00 45.46010 -73.75101 105 ft 9 kts 85°
2026-05-06 02:00 45.45987 -73.74973 104 ft 16 kts 114°
2026-05-06 02:00 45.45984 -73.74829 105 ft 13 kts 86°
2026-05-06 02:01 45.45965 -73.74712 103 ft 13 kts 109°
2026-05-06 02:01 45.45963 -73.74569 105 ft 15 kts 77°
2026-05-06 02:01 45.45992 -73.74436 104 ft 15 kts 74°
2026-05-06 02:01 45.45979 -73.74293 103 ft 14 kts 76°
2026-05-06 02:02 45.46036 -73.74194 102 ft 14 kts 42°
2026-05-06 02:02 45.46140 -73.74057 105 ft 26 kts 43°
2026-05-06 02:02 45.46271 -73.73886 106 ft 25 kts 43°
2026-05-06 02:02 45.46389 -73.73732 106 ft 22 kts 42°
2026-05-06 02:03 45.46493 -73.73596 108 ft 21 kts 43°
2026-05-06 02:03 45.46612 -73.73442 110 ft 23 kts 41°
2026-05-06 02:03 45.46720 -73.73298 113 ft 20 kts 43°
2026-05-06 02:03 45.46813 -73.73175 113 ft 17 kts 44°
2026-05-06 02:04 45.46897 -73.73065 112 ft 19 kts 42°
2026-05-06 02:04 45.47012 -73.72914 116 ft 26 kts 43°
2026-05-06 02:04 45.47144 -73.72741 115 ft 25 kts 43°
2026-05-06 02:04 45.47266 -73.72581 114 ft 23 kts 43°
2026-05-06 02:05 45.47375 -73.72438 118 ft 20 kts 42°
2026-05-06 02:05 45.47472 -73.72311 119 ft 18 kts 43°
2026-05-06 02:05 45.47572 -73.72181 118 ft 20 kts 43°
2026-05-06 02:05 45.47668 -73.72054 119 ft 17 kts 42°
2026-05-06 02:06 45.47750 -73.71946 121 ft 15 kts 42°
2026-05-06 02:06 45.47808 -73.71845 119 ft 12 kts 75°
2026-05-06 02:06 45.47772 -73.71729 120 ft 14 kts 125°
2026-05-06 02:06 45.47701 -73.71636 125 ft 12 kts 165°
2026-05-06 02:07 45.47640 -73.71686 124 ft 10 kts 223°
2026-05-06 02:07 45.47487 -73.71888 120 ft 63 kts 223°
2026-05-06 02:07 45.47006 -73.72519 119 ft 122 kts 223°
2026-05-06 02:07 45.46267 -73.73492 234 ft 157 kts 223°
2026-05-06 02:08 45.45491 -73.74519 991 ft 151 kts 225°
2026-05-06 02:08 45.44694 -73.75535 1584 ft 158 kts 224°
2026-05-06 02:08 45.43873 -73.76596 2123 ft 159 kts 228°
2026-05-06 02:08 45.43231 -73.77857 2679 ft 158 kts 246°
2026-05-06 02:09 45.42940 -73.79389 3159 ft 165 kts 262°
2026-05-06 02:09 45.42875 -73.81054 3596 ft 174 kts 266°
2026-05-06 02:09 45.42847 -73.82820 4012 ft 183 kts 269°
2026-05-06 02:09 45.42875 -73.84618 4634 ft 180 kts 270°
2026-05-06 02:10 45.42945 -73.86396 5140 ft 185 kts 270°
2026-05-06 02:10 45.43005 -73.88354 5360 ft 210 kts 269°
2026-05-06 02:10 45.43041 -73.90542 5806 ft 228 kts 268°
2026-05-06 02:10 45.43050 -73.92814 6623 ft 230 kts 266°
2026-05-06 02:11 45.43037 -73.95088 7468 ft 230 kts 265°
2026-05-06 02:11 45.43006 -73.97359 8343 ft 230 kts 264°
2026-05-06 02:11 45.42959 -73.99636 9195 ft 231 kts 263°
2026-05-06 02:11 45.42904 -74.01938 9958 ft 234 kts 262°
2026-05-06 02:12 45.42837 -74.04313 10358 ft 251 kts 262°
2026-05-06 02:12 45.42755 -74.06908 10502 ft 274 kts 263°
2026-05-06 02:12 45.42666 -74.09706 10832 ft 289 kts 263°
2026-05-06 02:12 45.42581 -74.12595 11465 ft 294 kts 263°
2026-05-06 02:13 45.42498 -74.15526 12160 ft 298 kts 263°
2026-05-06 02:13 45.42414 -74.18492 12861 ft 301 kts 263°
2026-05-06 02:13 45.42328 -74.21487 13558 ft 305 kts 263°
2026-05-06 02:13 45.42239 -74.24522 14176 ft 308 kts 263°
2026-05-06 02:14 45.42150 -74.27590 14806 ft 312 kts 263°
2026-05-06 02:14 45.42055 -74.30680 15474 ft 314 kts 263°
2026-05-06 02:14 45.41958 -74.33751 16131 ft 316 kts 263°
2026-05-06 02:14 45.41857 -74.36926 16764 ft 318 kts 263°
2026-05-06 02:15 45.41757 -74.40047 17363 ft 321 kts 262°
2026-05-06 02:15 45.41595 -74.43220 17959 ft 322 kts 257°
2026-05-06 02:15 45.41111 -74.46330 18471 ft 323 kts 253°
2026-05-06 02:15 45.40589 -74.49445 19007 ft 325 kts 253°
2026-05-06 02:16 45.40061 -74.52578 19545 ft 326 kts 253°
2026-05-06 02:16 45.39532 -74.55721 20072 ft 328 kts 253°
2026-05-06 02:16 45.39001 -74.58885 20598 ft 330 kts 253°
2026-05-06 02:16 45.38467 -74.62068 21119 ft 331 kts 253°
2026-05-06 02:17 45.37922 -74.65303 21646 ft 333 kts 253°
2026-05-06 02:17 45.37382 -74.68518 22156 ft 335 kts 253°
2026-05-06 02:17 45.36847 -74.71707 22658 ft 337 kts 253°
2026-05-06 02:17 45.36301 -74.74948 23256 ft 337 kts 253°
2026-05-06 02:18 45.35752 -74.78180 23750 ft 337 kts 253°
2026-05-06 02:18 45.35201 -74.81420 24170 ft 338 kts 253°
2026-05-06 02:18 45.34645 -74.84686 24525 ft 341 kts 253°
2026-05-06 02:18 45.34086 -74.87973 24905 ft 343 kts 253°
2026-05-06 02:19 45.33523 -74.91282 25288 ft 346 kts 253°
2026-05-06 02:19 45.32954 -74.94609 25666 ft 348 kts 253°
2026-05-06 02:19 45.32378 -74.97955 26054 ft 350 kts 253°
2026-05-06 02:19 45.31796 -75.01315 26430 ft 351 kts 253°
2026-05-06 02:20 45.30810 -75.06993 27050 ft 355 kts 253°
2026-05-06 02:20 45.30219 -75.10404 27422 ft 357 kts 253°
2026-05-06 02:20 45.29627 -75.13837 27787 ft 359 kts 253°
2026-05-06 02:21 45.29029 -75.17288 28192 ft 361 kts 253°
2026-05-06 02:21 45.28426 -75.20756 28544 ft 362 kts 253°
2026-05-06 02:21 45.27817 -75.24238 28890 ft 364 kts 253°
2026-05-06 02:21 45.27204 -75.27743 29228 ft 366 kts 254°
2026-05-06 02:22 45.26584 -75.31256 29561 ft 369 kts 254°
2026-05-06 02:22 45.25965 -75.34753 29885 ft 370 kts 254°
2026-05-06 02:22 45.25339 -75.38292 30275 ft 369 kts 254°
2026-05-06 02:22 45.24718 -75.41818 30689 ft 368 kts 254°
2026-05-06 02:23 45.24101 -75.45335 31128 ft 366 kts 254°
2026-05-06 02:23 45.23486 -75.48834 31489 ft 365 kts 254°
2026-05-06 02:23 45.22868 -75.52325 31862 ft 365 kts 254°
2026-05-06 02:23 45.22248 -75.55810 32266 ft 364 kts 254°
2026-05-06 02:24 45.21627 -75.59282 32678 ft 363 kts 254°
2026-05-06 02:24 45.21004 -75.62749 33125 ft 361 kts 254°
2026-05-06 02:24 45.20388 -75.66194 33563 ft 360 kts 255°
2026-05-06 02:24 45.19776 -75.69620 33957 ft 358 kts 255°
2026-05-06 02:25 45.19165 -75.73040 34268 ft 358 kts 255°
2026-05-06 02:25 45.18551 -75.76464 34536 ft 359 kts 255°
2026-05-06 02:25 45.17932 -75.79897 34795 ft 360 kts 255°
2026-05-06 02:25 45.17313 -75.83330 35052 ft 360 kts 256°
2026-05-06 02:26 45.16689 -75.86773 35303 ft 361 kts 256°
2026-05-06 02:26 45.16062 -75.90218 35566 ft 362 kts 256°
2026-05-06 02:26 45.15435 -75.93672 35772 ft 363 kts 256°
2026-05-06 02:27 45.14176 -76.00585 35850 ft 361 kts 256°
2026-05-06 02:27 45.12931 -76.07409 35851 ft 359 kts 257°
2026-05-06 02:28 45.11679 -76.14238 35835 ft 359 kts 256°
2026-05-06 02:28 45.10415 -76.21086 35849 ft 360 kts 255°
2026-05-06 02:29 45.08319 -76.27542 35853 ft 363 kts 244°
2026-05-06 02:29 45.05857 -76.33788 35849 ft 363 kts 244°
2026-05-06 02:30 45.03394 -76.40036 35853 ft 363 kts 244°
2026-05-06 02:30 45.00924 -76.46266 35850 ft 363 kts 244°
2026-05-06 02:31 44.98452 -76.52502 35895 ft 364 kts 245°
2026-05-06 02:31 44.95975 -76.58728 35865 ft 364 kts 245°
2026-05-06 02:32 44.93490 -76.64956 35857 ft 364 kts 244°
2026-05-06 02:32 44.91008 -76.71173 35862 ft 364 kts 244°
2026-05-06 02:33 44.88604 -76.77186 35868 ft 364 kts 244°
2026-05-06 02:33 44.87763 -76.79289 35859 ft 364 kts 244°
2026-05-06 02:34 44.83623 -76.89622 35871 ft 364 kts 244°
2026-05-06 02:34 44.81115 -76.95822 35838 ft 364 kts 244°
2026-05-06 02:35 44.78609 -77.02024 35873 ft 365 kts 244°
2026-05-06 02:35 44.76103 -77.08236 35874 ft 365 kts 244°
2026-05-06 02:36 44.73593 -77.14437 35868 ft 365 kts 244°
2026-05-06 02:36 44.71084 -77.20647 35864 ft 365 kts 244°
2026-05-06 02:37 44.68565 -77.26843 35868 ft 365 kts 244°
2026-05-06 02:37 44.66043 -77.33035 35846 ft 365 kts 244°
2026-05-06 02:38 44.63520 -77.39217 35848 ft 365 kts 244°
2026-05-06 02:38 44.62257 -77.42303 35592 ft 365 kts 244°
2026-05-06 02:38 44.61007 -77.45342 35340 ft 364 kts 243°
2026-05-06 02:38 44.59746 -77.48411 35047 ft 363 kts 244°
2026-05-06 02:39 44.58483 -77.51490 34469 ft 365 kts 243°
2026-05-06 02:39 44.57213 -77.54585 33807 ft 368 kts 243°
2026-05-06 02:39 44.55932 -77.57713 33048 ft 371 kts 242°
2026-05-06 02:39 44.54643 -77.60851 32350 ft 372 kts 242°
2026-05-06 02:40 44.53350 -77.63984 31861 ft 369 kts 242°
2026-05-06 02:40 44.52066 -77.67085 31372 ft 366 kts 242°
2026-05-06 02:40 44.50796 -77.70155 30839 ft 364 kts 242°
2026-05-06 02:40 44.49527 -77.73218 30259 ft 363 kts 241°
2026-05-06 02:41 44.48258 -77.76273 29654 ft 362 kts 241°
2026-05-06 02:41 44.46994 -77.79316 29063 ft 360 kts 241°
2026-05-06 02:41 44.45740 -77.82335 28507 ft 357 kts 241°
2026-05-06 02:41 44.44495 -77.85329 27950 ft 355 kts 241°
2026-05-06 02:42 44.43257 -77.88302 27403 ft 352 kts 240°
2026-05-06 02:42 44.42025 -77.91253 26860 ft 350 kts 240°
2026-05-06 02:42 44.40805 -77.94181 26348 ft 348 kts 240°
2026-05-06 02:42 44.39587 -77.97096 25810 ft 346 kts 240°
2026-05-06 02:43 44.38377 -77.99991 25293 ft 344 kts 240°
2026-05-06 02:43 44.37173 -78.02865 24788 ft 341 kts 240°
2026-05-06 02:43 44.35979 -78.05719 24310 ft 338 kts 240°
2026-05-06 02:43 44.34806 -78.08528 23940 ft 332 kts 240°
2026-05-06 02:44 44.33642 -78.11303 23481 ft 330 kts 240°
2026-05-06 02:44 44.32484 -78.14053 22976 ft 327 kts 240°
2026-05-06 02:44 44.31337 -78.16771 22525 ft 323 kts 240°
2026-05-06 02:44 44.30205 -78.19454 22071 ft 319 kts 240°
2026-05-06 02:45 44.29103 -78.22071 21654 ft 315 kts 240°
2026-05-06 02:45 44.27997 -78.24686 21224 ft 312 kts 240°
2026-05-06 02:45 44.26899 -78.27278 20784 ft 309 kts 240°
2026-05-06 02:45 44.25811 -78.29849 20337 ft 306 kts 240°
2026-05-06 02:46 44.24732 -78.32397 19890 ft 305 kts 240°
2026-05-06 02:46 44.23657 -78.34937 19441 ft 303 kts 240°
2026-05-06 02:46 44.22589 -78.37457 18992 ft 302 kts 240°
2026-05-06 02:46 44.21522 -78.39968 18542 ft 300 kts 240°
2026-05-06 02:47 44.20461 -78.42470 18092 ft 299 kts 240°
2026-05-06 02:47 44.19403 -78.44961 17602 ft 297 kts 239°
2026-05-06 02:47 44.18352 -78.47429 17161 ft 295 kts 239°
2026-05-06 02:47 44.17312 -78.49867 16726 ft 292 kts 239°
2026-05-06 02:48 44.16282 -78.52284 16298 ft 289 kts 239°
2026-05-06 02:48 44.15262 -78.54676 15881 ft 286 kts 239°
2026-05-06 02:48 44.14252 -78.57045 15467 ft 283 kts 239°
2026-05-06 02:48 44.13249 -78.59392 15052 ft 281 kts 239°
2026-05-06 02:49 44.12252 -78.61720 14647 ft 279 kts 239°
2026-05-06 02:49 44.11265 -78.64025 14237 ft 277 kts 238°
2026-05-06 02:49 44.10280 -78.66320 13832 ft 276 kts 238°
2026-05-06 02:49 44.09301 -78.68604 13410 ft 274 kts 239°
2026-05-06 02:50 44.08328 -78.70876 12972 ft 272 kts 239°
2026-05-06 02:50 44.07362 -78.73130 12562 ft 270 kts 239°
2026-05-06 02:50 44.06404 -78.75360 12159 ft 268 kts 239°
2026-05-06 02:50 44.05452 -78.77574 11740 ft 265 kts 239°
2026-05-06 02:51 44.04511 -78.79751 11487 ft 258 kts 238°
2026-05-06 02:51 44.03425 -78.81667 11362 ft 248 kts 229°
2026-05-06 02:51 44.02276 -78.83389 11236 ft 238 kts 230°
2026-05-06 02:51 44.01174 -78.85038 11112 ft 227 kts 230°
2026-05-06 02:52 44.00123 -78.86615 10988 ft 217 kts 230°
2026-05-06 02:52 43.99119 -78.88121 10861 ft 208 kts 230°
2026-05-06 02:52 43.98161 -78.89559 10732 ft 198 kts 230°
2026-05-06 02:52 43.97238 -78.90947 10487 ft 194 kts 230°
2026-05-06 02:53 43.96328 -78.92314 10176 ft 192 kts 230°
2026-05-06 02:53 43.95433 -78.93656 9856 ft 192 kts 231°
2026-05-06 02:53 43.94532 -78.95004 9544 ft 189 kts 231°
2026-05-06 02:53 43.93620 -78.96368 9086 ft 191 kts 231°
2026-05-06 02:54 43.92721 -78.97714 8549 ft 190 kts 231°
2026-05-06 02:54 43.91817 -78.99067 7759 ft 194 kts 231°
2026-05-06 02:54 43.90880 -79.00470 7309 ft 201 kts 231°
2026-05-06 02:54 43.89924 -79.01902 7179 ft 204 kts 231°
2026-05-06 02:55 43.88952 -79.03354 7123 ft 206 kts 230°
2026-05-06 02:55 43.87983 -79.04807 7073 ft 205 kts 231°
2026-05-06 02:55 43.87269 -79.06466 7016 ft 203 kts 251°
2026-05-06 02:55 43.87022 -79.08416 6844 ft 204 kts 269°
2026-05-06 02:56 43.87076 -79.10388 6647 ft 205 kts 271°
2026-05-06 02:56 43.87124 -79.12367 6476 ft 206 kts 271°
2026-05-06 02:56 43.87168 -79.14347 6286 ft 206 kts 271°
2026-05-06 02:56 43.87214 -79.16329 6091 ft 206 kts 272°
2026-05-06 02:57 43.87260 -79.18318 5902 ft 207 kts 272°
2026-05-06 02:57 43.87307 -79.20313 5718 ft 207 kts 272°
2026-05-06 02:57 43.87354 -79.22312 5529 ft 208 kts 272°
2026-05-06 02:57 43.87399 -79.24291 5349 ft 208 kts 272°
2026-05-06 02:58 43.87444 -79.26299 5160 ft 209 kts 272°
2026-05-06 02:58 43.87489 -79.28315 4971 ft 209 kts 272°
2026-05-06 02:58 43.87266 -79.30315 4774 ft 212 kts 254°
2026-05-06 02:58 43.86564 -79.32125 4593 ft 216 kts 235°
2026-05-06 02:59 43.85530 -79.33648 4392 ft 217 kts 228°
2026-05-06 02:59 43.84448 -79.35107 4205 ft 217 kts 226°
2026-05-06 02:59 43.83384 -79.36577 4010 ft 216 kts 227°
2026-05-06 02:59 43.82355 -79.38066 3818 ft 207 kts 228°
2026-05-06 03:00 43.81405 -79.39456 3641 ft 190 kts 228°
2026-05-06 03:00 43.80547 -79.40713 3485 ft 171 kts 228°
2026-05-06 03:00 43.79761 -79.41864 3337 ft 161 kts 227°
2026-05-06 03:00 43.79005 -79.42973 3201 ft 157 kts 226°
2026-05-06 03:01 43.78260 -79.44063 3097 ft 155 kts 226°
2026-05-06 03:01 43.77516 -79.45151 3022 ft 156 kts 226°
2026-05-06 03:01 43.76775 -79.46235 3009 ft 155 kts 226°
2026-05-06 03:01 43.76029 -79.47326 2958 ft 156 kts 226°
2026-05-06 03:02 43.75284 -79.48415 2802 ft 156 kts 226°
2026-05-06 03:02 43.74542 -79.49498 2612 ft 155 kts 225°
2026-05-06 03:02 43.73811 -79.50566 2411 ft 154 kts 225°
2026-05-06 03:02 43.73073 -79.51643 2198 ft 153 kts 225°
2026-05-06 03:03 43.72339 -79.52713 1992 ft 154 kts 225°
2026-05-06 03:03 43.71603 -79.53775 1771 ft 154 kts 224°
2026-05-06 03:03 43.70865 -79.54844 1567 ft 154 kts 225°
2026-05-06 03:03 43.70145 -79.55935 1378 ft 153 kts 227°
2026-05-06 03:04 43.69426 -79.57031 1170 ft 154 kts 226°
2026-05-06 03:04 43.68645 -79.58049 979 ft 154 kts 222°
2026-05-06 03:04 43.67911 -79.59140 797 ft 156 kts 229°
2026-05-06 03:04 43.67186 -79.60212 593 ft 147 kts 223°
2026-05-06 03:05 43.66523 -79.61163 565 ft 123 kts 227°
2026-05-06 03:05 43.66108 -79.61781 567 ft 40 kts 229°
2026-05-06 03:05 43.66010 -79.62000 566 ft 24 kts 251°
2026-05-06 03:05 43.66000 -79.62192 559 ft 20 kts 301°
2026-05-06 03:06 43.66085 -79.62319 570 ft 17 kts 316°
2026-05-06 03:06 43.66172 -79.62431 560 ft 18 kts 317°
2026-05-06 03:06 43.66279 -79.62487 561 ft 16 kts 19°
2026-05-06 03:06 43.66363 -79.62392 565 ft 15 kts 41°
2026-05-06 03:07 43.66446 -79.62288 570 ft 16 kts 42°
2026-05-06 03:07 43.66523 -79.62191 568 ft 14 kts 42°
2026-05-06 03:07 43.66611 -79.62078 570 ft 22 kts 42°
2026-05-06 03:07 43.66726 -79.61936 571 ft 22 kts 42°
2026-05-06 03:08 43.66835 -79.61799 568 ft 21 kts 42°
2026-05-06 03:08 43.66939 -79.61667 570 ft 20 kts 43°
2026-05-06 03:08 43.67040 -79.61539 568 ft 19 kts 42°
2026-05-06 03:08 43.67135 -79.61421 571 ft 19 kts 43°
2026-05-06 03:09 43.67221 -79.61283 566 ft 20 kts 53°
2026-05-06 03:09 43.67297 -79.61277 571 ft 11 kts 317°
2026-05-06 03:09 43.67393 -79.61413 566 ft 25 kts 316°
2026-05-06 03:09 43.67516 -79.61574 570 ft 24 kts 317°
2026-05-06 03:10 43.67636 -79.61727 565 ft 23 kts 317°
2026-05-06 03:10 43.67747 -79.61875 563 ft 21 kts 316°
2026-05-06 03:10 43.67848 -79.62009 564 ft 20 kts 315°
2026-05-06 03:10 43.67960 -79.62037 563 ft 17 kts 35°
2026-05-06 03:11 43.68010 -79.61898 566 ft 15 kts 53°
2026-05-06 03:11 43.68064 -79.61821 568 ft 10 kts 47°
2026-05-06 03:11 43.68106 -79.61753 567 ft 7 kts 71°
2026-05-06 03:11 43.68084 -79.61705 566 ft 6 kts 135°
2026-05-06 03:12 43.68057 -79.61669 566 ft 0 kts 136°